| time (UTC) | temp F | wind direction | speed MPH | gust MPH | rain 1hr in | rain 24hr in | rain mn in | humidity % | barometer mb |
| 20260904221210 | 74 | 163 | 0.0 | 3.0 | 0.00 | 0.00 | 0.00 | 74 | 472.1 |
| 20260904220646 | 74 | 182 | 0.0 | 0.0 | 0.00 | 0.00 | 0.00 | 74 | 534.9 |
| 20260904215202 | 75 | 182 | 0.0 | 0.0 | 0.00 | 0.00 | 0.00 | 74 | 1042.4 |
| 20260904214203 | 75 | 182 | 0.0 | 0.0 | 0.00 | 0.00 | 0.00 | 73 | 1224.2 |
| 20260904213202 | 76 | 182 | 0.0 | 0.0 | 0.00 | 0.00 | 0.00 | 71 | 420.9 |
| 20260904212202 | 76 | 182 | 0.0 | 0.0 | 0.00 | 0.00 | 0.00 | 70 | 501.3 |
| 20260904211203 | 76 | 182 | 0.0 | 0.0 | 0.00 | 0.00 | 0.00 | 71 | 1031.0 |
| 20260904210158 | 76 | 182 | 0.0 | 0.0 | 0.00 | 0.00 | 0.00 | 70 | 1098.7 |
| 20260904205646 | 76 | 182 | 0.0 | 0.0 | 0.00 | 0.00 | 0.00 | 71 | 503.8 |
| 20260904204637 | 77 | 182 | 0.0 | 0.0 | 0.00 | 0.00 | 0.00 | 72 | 812.3 |
| 20260904203155 | 77 | 182 | 0.0 | 0.0 | 0.00 | 0.00 | 0.00 | 70 | 420.8 |
| 20260904202154 | 78 | 182 | 0.0 | 0.0 | 0.00 | 0.00 | 0.00 | 69 | 825.4 |
| 20260904201154 | 78 | 182 | 0.0 | 0.0 | 0.00 | 0.00 | 0.00 | 69 | 571.0 |
| 20260904200154 | 78 | 182 | 0.0 | 0.0 | 0.00 | 0.00 | 0.00 | 68 | 475.9 |
| 20260904195154 | 78 | 182 | 0.0 | 0.0 | 0.00 | 0.00 | 0.00 | 68 | 579.2 |
| 20260904194154 | 78 | 182 | 0.0 | 0.0 | 0.00 | 0.00 | 0.00 | 67 | 1145.5 |
| 20260904193639 | 78 | 182 | 0.0 | 0.0 | 0.00 | 0.00 | 0.00 | 67 | 712.7 |
| 20260904192154 | 78 | 182 | 0.0 | 0.0 | 0.00 | 0.00 | 0.00 | 68 | 837.4 |
| 20260904191155 | 78 | 188 | 0.0 | 0.0 | 0.00 | 0.00 | 0.00 | 68 | 1032.3 |
| 20260904190628 | 79 | 188 | 0.0 | 0.0 | 0.00 | 0.00 | 0.00 | 67 | 861.1 |
| 20260904185151 | 79 | 188 | 0.0 | 0.0 | 0.00 | 0.00 | 0.00 | 67 | 674.8 |
| 20260904185120 | 79 | 188 | 0.0 | 0.0 | 0.00 | 0.00 | 0.00 | 66 | 876.2 |
| 20260904183150 | 80 | 188 | 0.0 | 0.0 | 0.00 | 0.00 | 0.00 | 64 | 1165.4 |
| 20260904182150 | 80 | 188 | 0.0 | 0.0 | 0.00 | 0.00 | 0.00 | 63 | 1276.8 |
| 20260904181150 | 80 | 188 | 0.0 | 0.0 | 0.00 | 0.00 | 0.00 | 62 | 1144.9 |
| 20260904180150 | 81 | 188 | 0.0 | 0.0 | 0.00 | 0.00 | 0.00 | 62 | 631.0 |
| 20260904175150 | 81 | 188 | 0.0 | 0.0 | 0.00 | 0.00 | 0.00 | 61 | 682.4 |
| 20260904174151 | 82 | 188 | 0.0 | 0.0 | 0.00 | 0.00 | 0.00 | 59 | 604.8 |
| 20260904173146 | 83 | 188 | 0.0 | 3.0 | 0.00 | 0.00 | 0.00 | 58 | 564.4 |
| 20260904172147 | 83 | 188 | 0.0 | 3.0 | 0.00 | 0.00 | 0.00 | 57 | 668.7 |
| 20260904171146 | 84 | 190 | 0.0 | 4.0 | 0.00 | 0.00 | 0.00 | 56 | 462.0 |
| 20260904170146 | 85 | 220 | 1.0 | 6.0 | 0.00 | 0.00 | 0.00 | 56 | 503.4 |
| 20260904165145 | 85 | 202 | 1.0 | 6.0 | 0.00 | 0.00 | 0.00 | 55 | 826.6 |
| 20260904164146 | 86 | 213 | 1.0 | 5.0 | 0.00 | 0.00 | 0.00 | 54 | 499.7 |
| 20260904163617 | 86 | 199 | 1.0 | 5.0 | 0.00 | 0.00 | 0.00 | 53 | 507.2 |
| 20260904162144 | 86 | 232 | 1.0 | 8.0 | 0.00 | 0.00 | 0.00 | 54 | 712.3 |
| 20260904161143 | 87 | 198 | 2.0 | 5.0 | 0.00 | 0.00 | 0.00 | 53 | 455.8 |
| 20260904160142 | 87 | 212 | 2.0 | 9.0 | 0.00 | 0.00 | 0.00 | 53 | 892.0 |
| 20260904155142 | 87 | 212 | 2.0 | 8.0 | 0.00 | 0.00 | 0.00 | 52 | 958.4 |
| 20260904154137 | 87 | 208 | 2.0 | 7.0 | 0.00 | 0.00 | 0.00 | 52 | 1272.2 |
| 20260904153615 | 88 | 180 | 1.0 | 6.0 | 0.00 | 0.00 | 0.00 | 52 | 956.6 |
| 20260904152138 | 88 | 203 | 1.0 | 8.0 | 0.00 | 0.00 | 0.00 | 50 | 746.3 |
| 20260904151137 | 88 | 207 | 2.0 | 10.0 | 0.00 | 0.00 | 0.00 | 51 | 1133.5 |
| 20260904150621 | 88 | 172 | 2.0 | 9.0 | 0.00 | 0.00 | 0.00 | 50 | 864.8 |
| 20260904145138 | 88 | 193 | 4.0 | 9.0 | 0.00 | 0.00 | 0.00 | 51 | 593.0 |
| 20260904144132 | 89 | 189 | 1.0 | 6.0 | 0.00 | 0.00 | 0.00 | 50 | 843.7 |
| 20260904143134 | 89 | 173 | 3.0 | 8.0 | 0.00 | 0.00 | 0.00 | 50 | 1199.5 |
| 20260904142132 | 89 | 168 | 0.0 | 7.0 | 0.00 | 0.00 | 0.00 | 49 | 1054.9 |
| 20260904141136 | 89 | 233 | 2.0 | 7.0 | 0.00 | 0.00 | 0.00 | 49 | 523.3 |
| 20260904140134 | 89 | 261 | 1.0 | 7.0 | 0.00 | 0.00 | 0.00 | 51 | 919.1 |
| 20260904135133 | 89 | 235 | 1.0 | 6.0 | 0.00 | 0.00 | 0.00 | 49 | 937.7 |
| 20260904134135 | 89 | 218 | 2.0 | 12.0 | 0.00 | 0.00 | 0.00 | 50 | 851.3 |
| 20260904133133 | 88 | 271 | 2.0 | 7.0 | 0.00 | 0.00 | 0.00 | 49 | 906.1 |
| 20260904132132 | 88 | 252 | 3.0 | 8.0 | 0.00 | 0.00 | 0.00 | 51 | 1292.1 |
| 20260904131132 | 88 | 250 | 4.0 | 11.0 | 0.00 | 0.00 | 0.00 | 51 | 539.5 |
| 20260904130133 | 88 | 213 | 2.0 | 8.0 | 0.00 | 0.00 | 0.00 | 50 | 969.1 |
| 20260904125133 | 88 | 240 | 4.0 | 9.0 | 0.00 | 0.00 | 0.00 | 49 | 783.6 |
| 20260904124619 | 88 | 252 | 3.0 | 9.0 | 0.00 | 0.00 | 0.00 | 51 | 1235.3 |
| 20260904123132 | 88 | 223 | 2.0 | 7.0 | 0.00 | 0.00 | 0.00 | 50 | 941.0 |
| 20260904122131 | 88 | 229 | 4.0 | 9.0 | 0.00 | 0.00 | 0.00 | 50 | 1025.5 |
| 20260904121134 | 88 | 246 | 2.0 | 7.0 | 0.00 | 0.00 | 0.00 | 50 | 1232.2 |
| 20260904120133 | 88 | 235 | 2.0 | 7.0 | 0.00 | 0.00 | 0.00 | 51 | 410.0 |
| 20260904115134 | 88 | 236 | 1.0 | 6.0 | 0.00 | 0.00 | 0.00 | 49 | 420.6 |
| 20260904114617 | 88 | 180 | 1.0 | 10.0 | 0.00 | 0.00 | 0.00 | 50 | 631.4 |
| 20260904113611 | 87 | 155 | 1.0 | 7.0 | 0.00 | 0.00 | 0.00 | 49 | 433.8 |
| 20260904112129 | 87 | 265 | 3.0 | 9.0 | 0.00 | 0.00 | 0.00 | 51 | 1114.3 |
| 20260904111123 | 87 | 181 | 1.0 | 7.0 | 0.00 | 0.00 | 0.00 | 50 | 679.3 |
| 20260904110125 | 86 | 257 | 1.0 | 8.0 | 0.00 | 0.00 | 0.00 | 50 | 528.5 |
| 20260904105124 | 87 | 198 | 2.0 | 6.0 | 0.00 | 0.00 | 0.00 | 49 | 635.2 |
| 20260904104120 | 87 | 167 | 3.0 | 9.0 | 0.00 | 0.00 | 0.00 | 48 | 565.1 |
| 20260904103119 | 87 | 135 | 1.0 | 5.0 | 0.00 | 0.00 | 0.00 | 48 | 803.7 |
| 20260904102120 | 87 | 113 | 0.0 | 3.0 | 0.00 | 0.00 | 0.00 | 49 | 649.5 |
| 20260904101106 | 87 | 113 | 0.0 | 1.0 | 0.00 | 0.00 | 0.00 | 48 | 620.5 |
| 20260904100108 | 87 | 113 | 0.0 | 4.0 | 0.00 | 0.00 | 0.00 | 46 | 545.5 |
| 20260904095104 | 86 | 113 | 1.0 | 4.0 | 0.00 | 0.00 | 0.00 | 49 | 743.1 |
| 20260904094106 | 86 | 113 | 1.0 | 4.0 | 0.00 | 0.00 | 0.00 | 49 | 1273.1 |
| 20260904093105 | 86 | 113 | 0.0 | 3.0 | 0.00 | 0.00 | 0.00 | 48 | 1119.1 |
| 20260904092105 | 85 | 113 | 0.0 | 3.0 | 0.00 | 0.00 | 0.00 | 49 | 479.5 |
| 20260904091542 | 86 | 113 | 0.0 | 6.0 | 0.00 | 0.00 | 0.00 | 48 | 887.4 |
| 20260904085543 | 85 | 113 | 0.0 | 2.0 | 0.00 | 0.00 | 0.00 | 50 | 1295.5 |
| 20260904084542 | 84 | 113 | 0.0 | 3.0 | 0.00 | 0.00 | 0.00 | 50 | 425.8 |
| 20260904083054 | 83 | 113 | 1.0 | 3.0 | 0.00 | 0.00 | 0.00 | 50 | 808.4 |
| 20260904082053 | 83 | 113 | 1.0 | 6.0 | 0.00 | 0.00 | 0.00 | 50 | 739.1 |
| 20260904081532 | 83 | 38 | 0.0 | 1.0 | 0.00 | 0.00 | 0.00 | 51 | 845.3 |
| 20260904080058 | 83 | 38 | 0.0 | 0.0 | 0.00 | 0.00 | 0.00 | 54 | 465.8 |
| 20260904075050 | 81 | 38 | 0.0 | 0.0 | 0.00 | 0.00 | 0.00 | 55 | 466.1 |
| 20260904074049 | 81 | 38 | 0.0 | 4.0 | 0.00 | 0.00 | 0.00 | 58 | 996.6 |
| 20260904073049 | 80 | 24 | 0.0 | 0.0 | 0.00 | 0.00 | 0.00 | 58 | 1084.9 |
| 20260904073023 | 79 | 24 | 0.0 | 0.0 | 0.00 | 0.00 | 0.00 | 61 | 833.9 |
| 20260904071051 | 78 | 24 | 0.0 | 3.0 | 0.00 | 0.00 | 0.00 | 62 | 1167.3 |
| 20260904070044 | 77 | 24 | 0.0 | 4.0 | 0.00 | 0.00 | 0.00 | 63 | 926.3 |
| 20260904065040 | 76 | 24 | 1.0 | 5.0 | 0.00 | 0.00 | 0.00 | 63 | 742.2 |
| 20260904064042 | 75 | 26 | 0.0 | 4.0 | 0.00 | 0.00 | 0.00 | 64 | 792.1 |
| 20260904063034 | 75 | 25 | 1.0 | 5.0 | 0.00 | 0.00 | 0.00 | 65 | 1098.9 |
| 20260904062040 | 74 | 24 | 1.0 | 4.0 | 0.00 | 0.00 | 0.00 | 66 | 488.3 |
| 20260904062010 | 73 | 24 | 0.0 | 4.0 | 0.00 | 0.00 | 0.00 | 68 | 418.9 |
| 20260904060033 | 73 | 24 | 0.0 | 3.0 | 0.00 | 0.00 | 0.00 | 68 | 574.1 |
| 20260904055034 | 72 | 24 | 0.0 | 0.0 | 0.00 | 0.00 | 0.00 | 70 | 667.3 |
| 20260904054953 | 72 | 24 | 0.0 | 0.0 | 0.00 | 0.00 | 0.00 | 70 | 879.8 |
| 20260904053033 | 71 | 24 | 0.0 | 0.0 | 0.00 | 0.00 | 0.00 | 71 | 1047.1 |
| 20260904052030 | 71 | 24 | 0.0 | 0.0 | 0.00 | 0.00 | 0.00 | 72 | 516.9 |
| 20260904051029 | 70 | 24 | 0.0 | 0.0 | 0.00 | 0.00 | 0.00 | 73 | 765.5 |
| 20260904050016 | 70 | 24 | 0.0 | 3.0 | 0.00 | 0.00 | 0.00 | 72 | 819.1 |
| 20260904045012 | 70 | 24 | 0.0 | 0.0 | 0.00 | 0.00 | 0.00 | 72 | 947.3 |
| 20260904044447 | 71 | 24 | 0.0 | 2.0 | 0.00 | 0.00 | 0.00 | 72 | 763.0 |
| 20260904043006 | 70 | 24 | 0.0 | 0.0 | 0.00 | 0.00 | 0.00 | 72 | 896.9 |
| 20260904042006 | 70 | 24 | 0.0 | 0.0 | 0.00 | 0.00 | 0.00 | 72 | 950.6 |
| 20260904041005 | 71 | 24 | 0.0 | 0.0 | 0.00 | 0.00 | 0.00 | 72 | 433.6 |
| 20260904040008 | 71 | 24 | 0.0 | 0.0 | 0.00 | 0.00 | 0.00 | 72 | 480.8 |
| 20260904035004 | 71 | 24 | 1.0 | 5.0 | 0.00 | 0.00 | 0.00 | 72 | 506.2 |
| 20260904034006 | 71 | 24 | 0.0 | 0.0 | 0.00 | 0.00 | 0.00 | 72 | 538.8 |
| 20260904033445 | 71 | 24 | 0.0 | 0.0 | 0.00 | 0.00 | 0.00 | 72 | 572.3 |
| 20260904032004 | 71 | 24 | 0.0 | 0.0 | 0.00 | 0.00 | 0.00 | 72 | 791.5 |
| 20260904031000 | 71 | 24 | 0.0 | 0.0 | 0.00 | 0.00 | 0.00 | 72 | 822.2 |
| 20260904030443 | 71 | 24 | 0.0 | 0.0 | 0.00 | 0.00 | 0.00 | 71 | 481.3 |
| 20260904024956 | 71 | 24 | 0.0 | 2.0 | 0.00 | 0.00 | 0.00 | 72 | 1096.2 |
| 20260904023954 | 71 | 24 | 0.0 | 3.0 | 0.00 | 0.00 | 0.00 | 72 | 567.6 |
| 20260904022956 | 72 | 24 | 0.0 | 2.0 | 0.00 | 0.00 | 0.00 | 71 | 832.9 |
| 20260904021948 | 72 | 24 | 1.0 | 4.0 | 0.00 | 0.00 | 0.00 | 71 | 539.2 |
| 20260904021431 | 72 | 22 | 1.0 | 5.0 | 0.00 | 0.00 | 0.00 | 71 | 730.2 |
| 20260904015946 | 72 | 22 | 0.0 | 5.0 | 0.00 | 0.00 | 0.00 | 71 | 791.3 |
| 20260904015427 | 72 | 22 | 1.0 | 4.0 | 0.00 | 0.00 | 0.00 | 71 | 549.2 |
| 20260904014419 | 72 | 21 | 1.0 | 5.0 | 0.00 | 0.00 | 0.00 | 71 | 428.4 |
| 20260904012934 | 72 | 21 | 0.0 | 0.0 | 0.00 | 0.00 | 0.00 | 71 | 489.4 |
| 20260904012415 | 72 | 21 | 0.0 | 0.0 | 0.00 | 0.00 | 0.00 | 70 | 1105.2 |
| 20260904010930 | 73 | 21 | 0.0 | 0.0 | 0.00 | 0.00 | 0.00 | 70 | 545.9 |
| 20260904010413 | 73 | 21 | 0.0 | 2.0 | 0.00 | 0.00 | 0.00 | 70 | 602.7 |
| 20260904004932 | 73 | 21 | 1.0 | 5.0 | 0.00 | 0.00 | 0.00 | 69 | 1154.2 |
| 20260904003930 | 73 | 22 | 0.0 | 1.0 | 0.00 | 0.00 | 0.00 | 69 | 751.1 |
| 20260904003410 | 73 | 22 | 1.0 | 4.0 | 0.00 | 0.00 | 0.00 | 69 | 571.8 |
| 20260904001933 | 73 | 22 | 0.0 | 3.0 | 0.00 | 0.00 | 0.00 | 69 | 666.1 |
| 20260904000931 | 73 | 22 | 0.0 | 1.0 | 0.00 | 0.00 | 0.00 | 69 | 1036.7 |
| 20260903235928 | 73 | 22 | 0.0 | 0.0 | 0.00 | 0.00 | 0.00 | 68 | 567.4 |
| 20260903234928 | 74 | 22 | 0.0 | 0.0 | 0.00 | 0.00 | 0.00 | 68 | 999.9 |
| 20260903233920 | 74 | 22 | 0.0 | 0.0 | 0.00 | 0.00 | 0.00 | 67 | 421.5 |
| 20260903232917 | 74 | 22 | 0.0 | 0.0 | 0.00 | 0.00 | 0.00 | 67 | 1244.4 |
| 20260903231918 | 74 | 22 | 0.0 | 0.0 | 0.00 | 0.00 | 0.00 | 66 | 497.2 |
| 20260903230914 | 74 | 22 | 0.0 | 0.0 | 0.00 | 0.00 | 0.00 | 66 | 645.7 |
| 20260903225911 | 74 | 21 | 0.0 | 0.0 | 0.00 | 0.00 | 0.00 | 66 | 1073.0 |
| 20260903224912 | 74 | 21 | 0.0 | 3.0 | 0.00 | 0.00 | 0.00 | 66 | 784.0 |
| 20260903223908 | 74 | 22 | 0.0 | 1.0 | 0.00 | 0.00 | 0.00 | 68 | 729.4 |
| 20260903222907 | 74 | 22 | 0.0 | 0.0 | 0.00 | 0.00 | 0.00 | 68 | 482.0 |